      8   09 49.76  +09 44.4    1.307   1.494    41.2/331    79.9   40.7   11.3   +56.0  313.4

      9   09 48.41  +10 20.5    1.281   1.497    43.3/331    81.4   40.8   11.3   +57.4  314.9

     10   09 46.96  +10 58.2    1.256   1.500    45.6/330    82.9   40.9   11.3   +58.8  316.6

     11   09 45.41  +11 37.6    1.231   1.504    47.9/329    84.5   40.9   11.2   +60.2  318.4

     12   09 43.75  +12 18.9    1.206   1.507    50.4/329    86.1   40.9   11.2   +61.7  320.4

     13   09 41.97  +13 02.1    1.181   1.511    53.1/328    87.8   40.9   11.2   +63.1  322.6

     14   09 40.06  +13 47.3    1.156   1.514    56.0/328    89.5   40.8   11.1   +64.6  324.9

     15   09 38.01  +14 34.6    1.131   1.518    59.0/327    91.2   40.7   11.1   +66.0  327.6

     16   09 35.80  +15 24.2    1.107   1.522    62.2/327    93.0   40.5   11.0   +67.5  330.5

     17   09 33.44  +16 16.2    1.082   1.526    65.6/326    94.8   40.2   11.0   +69.0  333.9

     18   09 30.89  +17 10.6    1.058   1.530    69.2/326    96.7   39.9   11.0   +70.5  337.7

     19   09 28.15  +18 07.6    1.035   1.534    73.0/325    98.6   39.6   10.9   +71.9  342.2

     20   09 25.21  +19 07.4    1.012   1.538    77.0/324   100.6   39.2   10.9   +73.3  347.4

     21   09 22.03  +20 09.9    0.989   1.543    81.2/324   102.6   38.7   10.9   +74.6  353.5

     22   09 18.61  +21 15.4    0.967   1.547    85.6/323   104.7   38.1   10.8   +75.8    0.8

     23   09 14.92  +22 23.8    0.945   1.552    90.2/323   106.8   37.5   10.8   +76.7    9.5

     24   09 10.94  +23 35.3    0.924   1.557    95.0/322   109.0   36.8   10.7   +77.5   19.5

     25   09 06.64  +24 49.9    0.904   1.561    99.9/321   111.3   36.1   10.7   +77.8   30.6

     26   09 01.99  +26 07.5    0.884   1.566   105.0/320   113.6   35.3   10.7   +77.8   42.4

     27   08 56.96  +27 28.1    0.865   1.571   110.3/320   116.0   34.4   10.6   +77.3   54.1

     28   08 51.52  +28 51.7    0.847   1.577   115.6/319   118.4   33.4   10.6   +76.3   64.9

     29   08 45.63  +30 18.0    0.830   1.582   120.9/318   120.9   32.4   10.6   +75.0   74.5

     30   08 39.25  +31 46.8    0.814   1.587   126.2/317   123.4   31.2   10.6   +73.3   82.7

Dec.  1   08 32.34  +33 17.9    0.799   1.593   131.4/315   126.0   30.1   10.5   +71.3   89.7

                    m1 =  9.0 + 5 log △ + 10.0 log r

NAKANO

         **** Don't distribute anyone except personal use only ****

                (C) Copyright 2006 OAA/ComputingSection

write mail from CFAD0::NAKANO on 2006-10-22 07:34:46(JST).

 

◎C/2006 L1の軌道と予報位置です



 上尾の門田健一氏から10月15日朝の観測が報告されました.氏の CCD全光度は

12.5等でした.山本速報2517にある軌道からのずれは,赤経方向で刄ソ=+61",

刄ツ=+26"でした.彗星は,しばらく明るく観測できるでしょう.なお,彗星は,

長円軌道を動く長周期彗星でした.



    C/2006 L1 (Garradd)

Epoch 2006 Nov. 1.0 TT = JDT 2454040.5  

T 2006 Oct. 18.00250 TT                                 Nakano

q   1.4620717            (2000.0)            P               Q

z  +0.0018128      Peri.  338.40983     -0.47812925     +0.65433018

 +/-0.0000423      Node   101.76002     +0.86766881     +0.24847776

e   0.9973495      Incl.  143.24233     +0.13617364     +0.71422043

From 43 observations 2006 June 4-Oct. 14, mean residual 0".46.

   (1/a)org.= +0.001933, (1/a)fut.= +0.002520 (+/-0.000042), Q= 6.



2006/        α  (2000) δ      △      r    Elong. Phase    m1   天文薄明開始時

 28h JST    h  m       。  ,        AU      AU      。      。      等     h。    A 。 

Oct. 15   10 04.39  +00 31.6    1.886   1.462    50.1   31.5   12.0   +26.9  290.5

     16   10 04.20  +00 47.0    1.865   1.462    51.1   32.1   12.0   +28.1  291.2

     17   10 04.00  +01 02.7    1.842   1.462    52.2   32.6   12.0   +29.2  291.9

     18   10 03.76  +01 18.9    1.820   1.462    53.3   33.1   12.0   +30.3  292.6

     19   10 03.50  +01 35.6    1.797   1.462    54.4   33.6   11.9   +31.4  293.3

     20   10 03.22  +01 52.7    1.774   1.463    55.5   34.1   11.9   +32.5  294.0

     21   10 02.90  +02 10.4    1.751   1.463    56.6   34.6   11.9   +33.7  294.8

     22   10 02.56  +02 28.7    1.728   1.464    57.8   35.1   11.8   +34.8  295.6

     23   10 02.18  +02 47.5    1.704   1.464    58.9   35.6   11.8   +36.0  296.4

     24   10 01.76  +03 07.0    1.681   1.465    60.1   36.0   11.8   +37.1  297.2

     25   10 01.32  +03 27.2    1.657   1.466    61.3   36.5   11.8   +38.3  298.0

     26   10 00.83  +03 48.0    1.632   1.467    62.5   36.9   11.7   +39.5  298.8

     27   10 00.30  +04 09.6    1.608   1.469    63.7   37.3   11.7   +40.7  299.7

     28   09 59.73  +04 32.0    1.584   1.470    64.9   37.7   11.7   +41.9  300.6

     29   09 59.11  +04 55.1    1.559   1.472    66.2   38.1   11.6   +43.1  301.6

     30   09 58.45  +05 19.2    1.534   1.473    67.4   38.5   11.6   +44.3  302.5

     31   09 57.74  +05 44.2    1.509   1.475    68.7   38.8   11.6   +45.6  303.5

Nov.  1   09 56.97  +06 10.2    1.484   1.477    70.0   39.2   11.6   +46.8  304.6

      2   09 56.14  +06 37.1    1.459   1.479    71.4   39.5   11.5   +48.1  305.7

      3   09 55.25  +07 05.2    1.434   1.481    72.7   39.7   11.5   +49.4  306.8

      4   09 54.30  +07 34.5    1.408   1.484    74.1   40.0   11.5   +50.7  308.0

      5   09 53.28  +08 04.9    1.383   1.486    75.5   40.2   11.4   +52.0  309.2

      6   09 52.19  +08 36.7    1.358   1.489    76.9   40.4   11.4   +53.3  310.5

      7   09 51.01  +09 09.8    1.332   1.491    78.4   40.6   11.4   +54.7  311.9

      8   09 49.76  +09 44.4    1.307   1.494    79.9   40.7   11.3   +56.0  313.4

      9   09 48.41  +10 20.5    1.281   1.497    81.4   40.8   11.3   +57.4  314.9

     10   09 46.96  +10 58.2    1.256   1.500    82.9   40.9   11.3   +58.8  316.6

     11   09 45.41  +11 37.6    1.231   1.504    84.5   40.9   11.2   +60.2  318.4

     12   09 43.75  +12 18.9    1.206   1.507    86.1   40.9   11.2   +61.7  320.4

     13   09 41.97  +13 02.1    1.181   1.511    87.8   40.9   11.2   +63.1  322.6

     14   09 40.06  +13 47.3    1.156   1.514    89.5   40.8   11.1   +64.6  324.9

     15   09 38.01  +14 34.6    1.131   1.518    91.2   40.7   11.1   +66.0  327.6

     16   09 35.80  +15 24.2    1.107   1.522    93.0   40.5   11.0   +67.5  330.5

     17   09 33.44  +16 16.2    1.082   1.526    94.8   40.2   11.0   +69.0  333.9

     18   09 30.89  +17 10.6    1.058   1.530    96.7   39.9   11.0   +70.5  337.7

     19   09 28.15  +18 07.7    1.035   1.534    98.6   39.6   10.9   +71.9  342.1

     20   09 25.21  +19 07.4    1.012   1.538   100.6   39.2   10.9   +73.3  347.4

     21   09 22.03  +20 10.0    0.989   1.543   102.6   38.7   10.9   +74.6  353.5

     22   09 18.61  +21 15.4    0.967   1.547   104.7   38.1   10.8   +75.8    0.8

     23   09 14.92  +22 23.8    0.945   1.552   106.8   37.5   10.8   +76.7    9.5

     24   09 10.94  +23 35.3    0.924   1.557   109.0   36.8   10.7   +77.5   19.5

     25   09 06.64  +24 49.9    0.904   1.561   111.3   36.1   10.7   +77.8   30.6

     26   09 01.99  +26 07.5    0.884   1.566   113.6   35.3   10.7   +77.8   42.4

     27   08 56.96  +27 28.1    0.865   1.571   116.0   34.4   10.6   +77.3   54.1

     28   08 51.52  +28 51.7    0.847   1.577   118.4   33.4   10.6   +76.3   64.9

     29   08 45.63  +30 18.0    0.830   1.582   120.9   32.4   10.6   +75.0   74.5

     30   08 39.25  +31 46.9    0.814   1.587   123.4   31.2   10.6   +73.3   82.8

Dec.  1   08 32.34  +33 17.9    0.799   1.593   126.0   30.1   10.5   +71.3   89.7

                    m1 =  9.0 + 5 log △ + 10.0 log r

NAKANO

         **** Don't distribute anyone except personal use only ****

                (C) Copyright 2006 OAA/ComputingSection

write mail from CFAD0::NAKANO on 2006-10-15 05:11:33(JST).

 



    C/2006 L1 (Garradd)

T 2006 Oct. 17.83259 TT                                 Nakano

q   1.4666506            (2000.0)            P               Q

                   Peri.  338.21994     -0.48101144     +0.65228483

                   Node   101.80887     +0.86646976     +0.25184940

e   1.0            Incl.  143.24045     +0.13363440     +0.71491006

From 40 observations 2006 June 4-28.



NAKANO

         **** Don't distribute anyone except personal use only ****

                (C) Copyright 2006 OAA/ComputingSection

write mail from CFAD0::NAKANO on 2006-07-20 23:22:32(JST).

 



    C/2006 L1 (Garradd)

T 2006 Oct. 17.84847 TT                                 Nakano

q   1.4657228            (2000.0)            P               Q

                   Peri.  338.26303     -0.48051416     +0.65265374

                   Node   101.80836     +0.86666211     +0.25119424

e   1.0            Incl.  143.24073     +0.13417504     +0.71480385

From 35 observations 2006 June 4-15.





NAKANO

         **** Don't distribute anyone except personal use only ****

                (C) Copyright 2006 OAA/ComputingSection

write mail from CFAD0::NAKANO on 2006-06-20 02:59:54(JST).







戻ります。